Theta_e
333 330 326 325 324 324 325 322 323 325 326 326 325 325 324 327 327 327 327 328 328 329 329 329 329 328 327 328 328 326 326 327 325 325 325 325 324 323 321 320 320 316
333 329 325 326 324 325 325 325 325 326 326 326 325 323 325 326 326 325 323 323 324 326 327 327 326 325 325 325 326 325 323 323 321 321 322 321 321 321 321 320 318 318
332 328 326 325 325 326 326 326 326 326 326 325 325 324 324 326 325 324 323 323 323 323 324 324 323 322 321 321 322 321 321 320 320 321 321 318 319 319 320 321 320 320
331 328 325 324 324 325 326 325 325 324 325 323 323 322 322 323 324 323 321 320 320 321 321 321 320 319 319 320 321 318 319 318 319 319 318 318 318 318 320 321 320 319
330 326 326 326 325 325 324 323 324 323 322 322 322 321 323 323 320 318 319 318 319 319 320 319 319 319 319 319 318 317 316 315 318 318 317 317 319 320 321 322 321 320
329 325 325 325 324 324 322 320 320 324 326 321 321 320 324 323 318 317 317 317 317 317 316 317 317 318 318 317 317 316 316 316 317 317 315 316 316 319 318 321 320 319
328 326 325 324 325 325 324 321 320 320 322 324 321 321 321 319 318 317 316 317 315 315 315 317 317 318 318 318 317 317 317 317 316 315 315 316 318 318 317 319 318 318
329 326 324 324 326 326 324 321 320 320 321 320 321 320 319 316 318 319 318 317 316 315 315 316 317 317 318 318 317 317 318 319 318 316 315 315 317 316 318 318 318 316
328 325 323 323 327 326 325 324 323 322 323 322 321 321 320 318 318 319 318 318 318 318 316 316 317 319 320 318 317 317 316 318 318 317 316 316 315 315 314 316 316 316
328 327 324 323 323 324 325 325 326 326 325 323 321 320 320 320 320 318 318 319 318 318 318 317 317 319 320 319 318 317 317 318 318 319 317 317 316 314 313 314 316 316
328 327 327 326 325 324 324 324 324 324 323 320 321 320 319 322 319 318 318 319 320 318 318 318 318 317 318 319 321 322 321 320 319 319 320 319 319 318 318 317 317 318
328 328 327 326 325 325 325 325 325 324 322 323 322 322 320 320 321 319 316 316 317 316 317 318 318 317 318 318 319 320 321 321 321 321 321 321 321 321 319 320 320 319
327 327 328 326 326 326 327 327 325 324 322 322 322 322 322 321 321 319 319 318 316 316 316 317 318 318 318 318 319 320 321 322 322 322 321 322 322 321 322 322 322 321
327 327 326 327 328 328 327 327 323 323 322 323 323 322 323 321 321 320 320 319 319 317 318 318 319 318 320 320 321 322 325 325 325 324 324 322 324 323 323 322 323 323
329 329 329 329 327 327 327 327 326 326 325 323 323 325 325 323 324 323 321 319 319 319 318 319 320 321 322 322 322 324 326 326 326 324 325 325 324 324 326 324 325 325
328 328 328 328 328 327 326 327 327 327 326 325 324 324 324 324 324 325 322 321 320 320 320 322 323 324 321 312 315 323 325 324 325 325 325 325 325 324 323 323 322 324
327 327 328 327 327 326 325 325 326 327 326 324 322 324 324 324 324 324 323 323 321 322 323 325 325 325 302 301 303 309 321 324 322 321 321 320 320 321 320 321 321 322
325 326 326 326 326 325 325 325 326 326 326 326 325 324 324 324 324 323 324 324 323 324 325 325 326 307 298 299 301 303 310 322 322 321 319 319 319 317 318 317 317 319
321 322 322 324 325 325 325 326 326 325 324 324 325 325 324 324 323 323 323 325 325 324 324 324 327 300 299 297 298 299 303 313 321 322 321 319 318 318 317 317 318 319
317 320 321 322 322 324 325 325 325 324 326 326 326 325 325 324 323 323 324 323 323 324 323 325 325 301 298 297 297 297 299 305 320 320 321 320 319 318 320 319 318 315
313 314 317 319 321 322 323 323 323 325 325 325 324 324 324 324 323 322 323 323 323 323 322 322 324 300 297 297 296 296 297 301 319 319 319 318 318 320 318 317 319 319
312 312 314 315 316 318 320 320 321 322 323 325 324 324 325 325 324 323 321 321 322 322 321 320 325 297 297 296 296 296 295 311 317 318 317 318 319 318 318 318 318 319
311 311 312 313 314 314 315 317 319 321 324 324 323 324 323 324 322 322 323 322 320 320 320 321 326 300 297 297 296 295 299 315 316 316 317 317 316 317 316 319 319 318
309 310 310 311 312 312 314 316 318 319 319 324 323 322 322 323 324 322 322 322 322 322 320 322 318 309 296 297 296 296 304 314 315 316 315 314 316 315 316 313 308 298
308 309 309 310 310 311 313 313 315 317 317 319 323 323 321 322 323 322 320 322 323 323 314 317 319 309 294 295 295 295 304 317 316 314 313 313 313 312 312 311 310 302
307 307 308 309 310 310 311 312 313 314 316 317 320 321 321 321 322 322 321 322 323 323 322 318 319 317 302 294 295 295 300 316 317 314 312 312 311 310 309 310 309 305
Wind_Speed
6 5 5 5 4 4 3 4 4 4 4 4 5 4 4 4 4 5 4 4 4 5 5 5 5 5 5 5 4 7 6 6 6 6 6 6 6 6 4 5 5 4
7 6 5 5 5 4 4 3 4 4 4 5 5 5 4 4 4 4 5 5 5 5 5 5 5 5 5 5 5 5 5 5 6 5 6 7 6 7 7 6 5 3
7 7 7 6 5 6 5 4 4 4 4 5 6 5 5 4 4 4 4 5 6 6 5 5 5 6 6 5 5 5 5 6 6 6 6 7 6 6 5 5 5 5
8 8 8 7 7 6 5 5 4 4 4 5 5 5 5 4 5 5 5 6 6 6 5 5 5 5 6 5 5 5 5 6 6 6 6 6 6 6 5 5 4 4
9 9 8 8 7 7 5 5 5 5 4 5 6 5 4 4 6 6 5 5 6 6 5 6 5 5 5 5 6 5 5 5 5 5 6 6 6 5 5 5 5 6
9 9 9 9 8 7 6 6 6 5 5 5 6 5 4 4 5 6 6 6 6 6 6 6 6 5 5 6 5 5 5 6 5 6 7 7 6 5 5 5 5 5
9 8 9 9 9 8 7 7 6 5 4 3 4 5 5 5 6 6 6 6 7 6 6 6 6 6 5 5 6 5 6 6 6 6 7 6 6 5 6 5 5 6
8 8 9 8 9 8 7 8 7 6 5 5 4 5 6 7 7 6 6 6 7 7 7 6 6 6 5 5 6 6 6 4 5 5 6 6 4 6 5 3 3 4
8 8 9 9 9 8 7 8 8 8 7 7 7 6 5 6 7 6 6 7 6 7 7 7 7 6 5 6 6 6 6 5 4 5 6 5 4 5 5 5 3 3
8 8 9 9 8 7 8 8 8 8 8 8 7 7 6 5 7 7 6 6 6 7 7 7 7 6 5 6 7 7 6 6 5 5 6 5 5 5 6 5 4 3
8 7 7 7 7 7 8 9 9 8 7 8 7 7 7 6 6 7 7 7 6 7 7 7 7 7 6 5 5 4 5 5 6 6 5 4 4 3 3 4 5 3
6 5 4 6 8 8 7 8 8 8 8 7 8 7 8 7 7 7 7 8 8 8 8 8 8 7 7 7 7 6 5 5 5 5 5 5 5 4 6 4 3 5
7 6 6 7 8 7 6 7 8 8 8 8 7 7 8 8 8 8 7 8 9 9 9 9 9 9 8 8 8 8 7 6 5 5 5 4 5 5 5 5 5 5
8 9 7 8 7 6 6 7 8 8 8 8 7 8 8 9 8 9 8 8 9 9 9 9 9 9 9 9 9 8 7 7 6 4 5 4 4 3 4 5 5 6
3 5 6 6 6 6 6 6 6 6 6 7 8 8 7 8 9 9 9 9 9 9 9 9 8 8 8 9 9 9 7 6 5 6 4 4 4 5 1 2 4 6
3 4 4 5 5 6 6 6 5 6 5 6 7 8 8 9 9 9 9 10 10 10 9 8 8 7 5 5 5 9 9 7 5 4 3 2 2 2 2 2 4 3
1 3 4 5 5 5 6 6 6 6 6 7 9 7 8 8 8 9 9 9 10 9 9 8 8 4 9 10 11 11 9 7 6 4 4 3 2 2 2 3 4 5
1 2 3 4 4 6 5 6 7 6 7 7 7 7 7 8 8 9 8 9 9 10 10 9 9 10 12 9 10 11 8 7 6 5 4 4 2 3 3 3 4 3
3 3 1 1 3 4 5 6 6 7 8 8 9 8 8 9 9 9 10 9 9 11 12 11 8 14 14 12 10 10 7 5 6 5 7 7 8 7 7 5 2 5
5 4 3 2 2 2 3 5 6 7 7 7 8 9 9 9 10 11 10 11 10 11 12 11 9 13 16 15 13 12 11 7 6 6 6 7 7 8 4 1 6 8
6 6 5 5 5 4 3 4 5 5 6 6 7 8 9 10 10 11 7 8 11 12 11 11 9 16 16 15 12 11 12 8 6 6 6 7 7 5 5 7 5 5
6 5 5 5 4 4 5 5 5 5 6 6 6 7 7 8 9 8 10 12 13 13 13 13 7 16 18 17 16 14 12 6 6 5 7 7 6 7 8 6 6 6
6 7 6 6 5 5 6 6 6 6 6 6 7 7 8 9 9 9 6 9 12 14 13 10 2 7 15 17 15 15 10 8 10 10 9 9 8 8 7 6 4 3
6 6 7 7 7 7 7 6 6 7 7 6 7 8 9 9 9 8 9 12 12 10 13 4 6 7 11 12 15 16 15 13 13 10 9 11 9 9 7 7 6 9
7 7 7 7 7 8 7 8 8 7 7 8 7 8 8 9 10 7 9 11 10 10 3 3 6 6 10 12 15 18 17 13 13 12 12 11 10 9 8 8 7 9
7 7 7 7 7 8 8 8 8 8 8 8 8 8 8 9 10 10 11 10 9 8 6 8 9 8 12 15 17 19 21 12 11 12 13 11 10 9 9 8 8 7
Wind_Direction
150 139 136 146 142 132 144 140 149 158 140 131 123 122 108 94 92 95 103 97 96 91 81 78 83 97 95 72 83 101 91 91 92 91 93 92 83 92 91 71 59 72
146 139 134 132 127 131 129 133 140 143 133 124 113 109 107 114 114 113 114 120 113 102 100 99 95 88 86 85 80 97 95 92 95 96 98 102 102 83 79 79 76 75
141 134 137 137 132 127 129 132 129 129 131 121 121 121 117 114 111 109 109 105 104 102 98 90 85 83 88 97 94 93 94 85 79 74 71 71 74 85 81 74 70 73
145 141 142 133 129 137 137 137 126 100 102 134 127 123 131 125 115 109 109 110 112 107 100 98 100 94 94 101 104 96 92 87 84 94 98 93 86 83 82 84 81 74
149 144 140 137 138 141 147 150 140 133 134 122 127 133 129 136 141 132 124 118 118 119 113 107 100 102 104 97 97 98 93 96 101 98 95 96 88 89 90 87 84 84
152 149 147 144 148 152 161 162 149 146 137 150 146 147 150 161 149 140 138 136 122 120 123 117 116 109 107 109 108 110 113 103 106 115 111 111 121 124 117 110 106 96
156 156 146 149 155 161 157 157 155 153 155 180 153 147 171 156 148 151 151 146 142 138 126 123 117 120 119 118 116 111 104 114 123 118 118 108 106 108 113 128 107 98
163 153 161 154 155 159 153 155 164 163 172 188 165 169 190 162 157 154 157 159 147 141 138 135 134 126 133 121 114 112 116 120 121 130 112 112 124 125 113 84 111 123
178 174 175 164 156 160 164 163 168 178 187 183 174 178 181 166 152 157 169 159 154 153 149 145 141 138 129 131 126 134 134 130 125 107 118 127 138 136 146 125 137 124
192 190 185 183 182 183 188 191 173 178 184 181 178 170 172 167 153 172 166 167 165 158 150 154 147 144 145 143 149 140 142 139 135 136 137 151 153 167 140 146 148 157
191 194 196 200 208 209 200 196 200 199 197 187 179 180 170 175 171 173 173 169 172 168 160 162 154 159 156 150 134 152 139 141 154 152 152 156 166 162 127 157 157 189
189 196 208 219 220 214 210 194 205 211 203 203 185 187 178 180 187 181 184 179 180 183 176 173 172 169 168 165 162 162 167 164 171 161 171 179 164 194 171 195 178 193
184 190 206 221 219 210 210 200 206 212 205 201 196 193 188 191 191 193 195 191 190 188 187 185 179 177 179 178 171 175 172 175 169 173 182 188 181 186 208 191 203 209
184 173 190 216 210 208 213 203 202 206 212 215 208 203 200 206 199 200 197 205 197 194 190 188 182 185 178 177 178 175 175 171 178 170 190 191 206 227 215 217 215 221
175 186 191 200 204 212 215 209 213 221 212 224 223 215 213 219 213 208 201 206 205 198 195 186 189 184 180 184 181 180 168 165 163 176 196 194 170 219 359 2 328 332
188 183 199 213 210 210 213 215 222 232 232 229 231 228 221 222 225 219 214 211 213 199 202 184 186 194 157 169 162 183 171 149 142 128 115 85 27 25 17 331 293 283
197 202 194 199 210 218 225 227 220 225 239 240 241 232 231 225 227 221 219 216 215 206 198 189 193 142 120 120 109 114 138 133 116 95 45 4 46 30 328 263 245 225
149 185 208 204 196 208 221 243 238 238 238 237 242 239 231 235 226 226 218 217 220 213 202 198 205 138 152 145 146 152 159 157 158 139 136 231 236 241 230 246 267 286
334 335 314 214 217 220 197 222 230 230 240 235 231 232 237 230 217 224 225 220 219 224 215 203 214 154 163 165 166 174 182 197 180 171 182 196 207 203 213 220 27 347
353 345 318 298 280 232 226 234 238 239 236 235 238 240 240 241 237 229 228 226 223 225 222 217 208 155 173 180 178 177 183 205 210 197 205 209 207 212 183 255 144 221
4 6 343 343 315 309 273 256 260 270 259 246 240 235 232 230 240 240 245 244 237 231 232 228 218 162 171 177 179 182 186 196 213 223 218 222 217 166 169 213 201 216
359 347 352 330 321 305 285 266 259 256 259 257 251 251 247 239 237 217 227 239 239 235 232 232 213 161 172 174 177 184 180 194 210 228 224 220 200 200 181 187 192 190
348 336 341 328 324 309 295 290 278 266 258 252 246 244 246 242 239 244 244 248 244 240 238 233 281 172 176 182 177 177 168 197 212 204 204 195 204 189 175 138 80 17
332 330 326 330 320 316 325 319 306 287 274 253 247 245 243 242 248 235 234 239 237 230 242 220 260 225 209 189 184 179 188 198 204 191 192 194 178 184 146 117 73 42
318 319 315 317 319 319 325 316 306 298 285 274 255 248 252 254 247 245 249 246 243 245 94 144 211 176 190 201 194 187 197 206 196 181 189 179 172 170 140 130 109 64
299 301 305 304 306 309 308 311 310 301 290 282 272 258 251 247 248 250 248 246 240 236 193 194 209 210 184 198 200 195 202 219 194 192 191 177 177 161 147 134 122 103